FLOCK 2P-8

Last updated on Wed Feb 14 2018 16:19:50 GMT+0000 (Coordinated Universal Time)

1 41613U 16040Q 18045.39214445 .00001758 00000-0 75594-4 0 9991 2 41613 97.4319 111.2694 0009399 319.3398 40.7137 15.23947284 91535

Satellite not in orbit